Simultaneous Nadir Overpasses (SNOs) Predictions

Prediction of SNOs between METOP-A and TERRA Satellite Orbit:

Table of predicted SNOs for the next 14.0 days since TLE Epoch: 10/31/2020
Index Date (METOP-A) Time (METOP-A) Lat,Lon (METOP-A) SZA (METOP-A ) Date (TERRA) Time (TERRA) Lat,Lon (TERRA) SZA (TERRA ) Distance(km) Time Diff (sec)
1 10/31/2020 06:08:35 -81.37, -43.56 81.09 10/31/2020 06:09:39 -81.39, -43.70 81.06 2.77 64
2 10/31/2020 06:59:16 81.37, 123.80 98.93 10/31/2020 06:59:06 81.37, 123.68 98.91 2.12 10
3 11/03/2020 01:42:58 -81.38, 22.39 80.25 11/03/2020 01:43:54 -81.37, 22.46 80.22 1.79 56
4 11/03/2020 02:33:38 81.37,-169.87 99.81 11/03/2020 02:33:20 81.38,-169.80 99.81 1.26 18
5 11/05/2020 21:17:20 -81.37, 89.10 79.37 11/05/2020 21:18:09 -81.38, 88.97 79.36 2.17 49
6 11/05/2020 22:08:01 81.37,-103.57 100.65 11/05/2020 22:07:36 81.36,-103.71 100.61 2.87 25
7 11/08/2020 16:51:43 -81.37, 155.39 78.57 11/08/2020 16:52:24 -81.38, 155.42 78.54 0.55 41
8 11/08/2020 17:42:23 81.36, -36.90 101.48 11/08/2020 17:41:50 81.38, -36.90 101.48 1.62 33
9 11/11/2020 12:26:05 -81.38,-138.34 77.81 11/11/2020 12:26:38 -81.37,-138.17 77.78 2.82 33
